Weather Roundup
Issued by NWS Corpus Christi, TX

Home | Current Version | Previous Version | Text Only | Print | Product List | Glossary On
Versions: 1 2 3 4 5 6 7 8 9 10 11 12 13 14 15 16 17 18 19 20 21 22 23 24 25 26 27 28 29 30 31 32 33 34 35 36 37 38 39 40 41 42 43 44 45 46 47 48 49 50
000
ASUS44 KCRP 260810
HRRCRP

SOUTH TEXAS REGIONAL WEATHER ROUNDUP
NATIONAL WEATHER SERVICE CORPUS CHRISTI TX
300 AM CDT SUN MAR 26 2017


TXZ229>244-260900-
...CORPUS CHRISTI AREA OBSERVATIONS...

CITY           SKY/WX    TMP DP  RH WIND       PRES   REMARKS
CORPUS CHRISTI MOCLDY    71  70  96 S16       29.88F
NAS CORPUS CHR MOCLDY   N/A N/A N/A S17G26    29.87F
ROCKPORT       MOCLDY    72  69  90 SE14G21   29.89F
KINGSVILLE NAS MOCLDY    69  69 100 SE7       29.86F FOG
ALICE          MOCLDY    65  65 100 SE6       29.86F FOG
ORANGE GROVE     N/A     68  68 100 SE7       29.88F FOG
FALFURRIAS     CLEAR     68  67  95 SE6       29.86F
$$

...VICTORIA AREA OBSERVATIONS...

CITY           SKY/WX    TMP DP  RH WIND       PRES   REMARKS
VICTORIA       CLOUDY    71  68  90 S9        29.91S
BEEVILLE       CLOUDY   N/A N/A N/A SE5       29.89F HAZE
PLEASANTON     PTCLDY    66  66  98 SE7       29.87F
SAN ANTONIO    CLOUDY    68  65  90 S10       29.89S
$$

...LAREDO AREA OBSERVATIONS...

CITY           SKY/WX    TMP DP  RH WIND       PRES   REMARKS
LAREDO         CLEAR     71  65  81 SE13      29.82F
COTULLA        CLEAR     70  65  84 E8        29.84F
DEL RIO        PTCLDY    63  48  58 SE6       29.83S
MCALLEN        CLOUDY    72  69  90 SE15G25   29.86F
HEBBRONVILLE   CLEAR     65  64  96 S6        29.87S FOG
$$

...OTHER TEXAS OBSERVATIONS...

CITY           SKY/WX    TMP DP  RH WIND       PRES   REMARKS
BROWNSVILLE    CLEAR     71  69  93 S10       29.89F
HOUSTON        CLOUDY    67  65  93 CALM      29.92F FOG
COL. STATION   CLEAR     59  51  75 SE5       29.91F
AUSTIN         CLOUDY    63  58  83 S6        29.89F
WACO           CLEAR     53  50  89 CALM      29.91S
FORT WORTH     CLEAR     57  47  69 E7        29.87F
WICHITA FALLS  CLEAR     48  42  80 SE6       29.85F
LUBBOCK        CLEAR     53  34  48 SE12      29.82F
EL PASO        CLOUDY    66  21  18 NW16G24   29.90R
$$

...MARINE OBSERVATIONS...

STATION/POSITION TIME  SKY/WX   TEMP    WIND        PRES    VSBY  WAVE   SWELL
                                AIR SEA DIR/SP/G                  HT/PER HT/PER
                 (UTC)          (F)     (DEG/KT/KT) (MB)    (MI)  (FT/S) (FT/S)
PORT ARANSAS     0800            71 71  150/ 17/ 18 1011.9F
BUOY 90 E PORT A 0750            73 72  160/ 12/ 12 1013.0F         5/ 8   3/ 8
BUOY 45 SE BAFFI 0750            73     170/ 12/ 16 1011.7F         5/ 8   5/ 8
BUOY 200 E PT IS 0650            75 77  170/ 12/ 14 1014.5          5/ 8   5/ 8
BUOY 15 E GALVES 0750            71 71  210/  8/ 10 1013.3F         3/ 7   3/ 7
$$




USA.gov is the U.S. government's official web portal to all federal, state and local government web resources and services.